Wind_Speed
37 37 37 37 37 38 37 36 36 36 37 38 38 38 39 38 38 40 43 47 49 48 44 40 37 37 37 36 35 34 33 34 35 37 38 40 41 41 41 41 41 41 41 41 42 42 42 42 41 41 40 39 39 39 39 39 39 39 38 38 38 37 37 36 35 35 35 36 38 38 38 38 37 36 35 36 36 36 36 36 36 35 34 34 35 35
36 36 35 35 34 35 36 35 35 35 37 39 40 40 40 41 43 46 48 48 46 41 37 35 35 35 36 35 35 34 34 35 37 38 39 40 40 40 40 40 40 40 41 41 42 42 42 41 41 40 39 39 38 38 39 39 39 38 38 38 39 39 39 38 36 35 35 36 37 38 38 37 36 35 35 36 36 36 36 37 37 36 35 34 33 33
35 35 35 34 33 34 35 37 37 38 39 40 42 42 43 45 47 47 44 41 37 34 33 33 34 35 36 36 36 36 37 37 37 38 39 39 39 39 39 39 39 40 41 42 42 42 42 41 40 40 39 39 39 39 39 38 38 37 37 38 38 38 38 38 38 37 36 36 36 36 36 36 36 36 36 36 36 36 37 38 38 38 38 36 34 34
35 35 35 34 35 36 37 39 40 41 41 43 44 46 46 46 44 42 39 36 34 33 33 33 35 36 37 38 38 38 38 37 37 38 39 39 39 38 38 38 39 40 42 43 43 42 41 40 40 39 39 39 39 39 39 38 37 36 36 37 37 37 37 37 37 37 36 36 35 35 36 36 36 36 36 35 35 35 36 37 38 38 38 38 37 36
36 35 35 35 37 38 39 39 40 41 42 44 45 45 44 41 39 37 35 33 33 33 33 35 36 37 38 38 38 38 37 37 37 38 39 39 38 37 37 38 39 41 43 43 43 42 41 40 40 40 40 39 39 39 38 37 36 35 35 36 37 36 36 35 35 36 36 36 36 36 36 36 36 35 34 33 33 34 35 34 35 35 37 38 39 38
35 34 34 35 36 38 39 39 40 40 41 42 42 40 37 35 34 33 32 31 32 33 34 36 37 38 38 38 38 37 37 37 38 38 38 37 36 35 36 38 40 42 43 43 42 41 41 40 40 40 39 39 39 38 37 36 34 34 34 36 36 36 35 34 34 34 34 34 34 34 34 34 34 33 32 32 33 33 32 32 31 32 34 36 38 39
34 32 31 33 35 37 38 38 38 38 38 37 36 35 33 32 31 30 31 32 33 34 36 37 38 39 38 37 37 36 37 38 38 38 37 35 34 34 36 38 41 42 43 42 41 41 40 40 39 39 38 38 38 37 36 34 32 33 34 36 37 36 36 35 34 35 34 33 32 30 30 30 30 31 32 33 33 32 30 30 30 31 32 34 36 38
33 32 32 34 36 38 38 38 37 36 34 34 34 34 33 32 32 32 33 34 35 36 37 38 39 38 37 37 36 36 37 38 38 37 35 34 33 34 36 39 41 42 42 41 40 40 40 39 39 38 37 36 35 34 32 31 32 34 36 37 37 37 36 36 37 37 38 36 33 30 28 28 28 30 31 31 30 29 29 29 29 30 31 33 34 36
32 34 36 37 38 38 38 37 35 33 32 32 33 34 36 36 37 37 37 37 37 37 37 38 38 38 37 37 36 36 37 36 35 34 33 32 33 35 38 40 42 42 41 40 39 39 38 38 38 37 35 33 31 30 30 31 34 37 38 38 37 36 35 35 36 37 38 36 33 30 28 27 27 28 29 28 28 28 28 28 28 28 30 31 32 34
35 37 39 40 39 37 36 35 33 31 31 33 35 37 38 39 38 39 39 39 39 39 38 37 37 37 38 37 37 36 36 35 34 32 31 31 33 36 38 40 40 40 40 39 38 38 38 38 37 34 32 30 29 30 31 34 37 39 39 37 35 33 32 32 33 34 35 35 33 30 28 26 26 26 26 26 26 27 27 26 26 26 27 29 30 31
39 41 41 39 36 34 32 30 30 31 33 35 37 38 38 38 37 37 39 40 41 40 38 37 37 36 37 37 37 36 35 34 33 31 31 32 35 36 37 38 38 39 39 38 38 38 38 37 35 32 30 30 31 32 34 37 38 38 36 34 32 30 30 29 30 31 32 33 32 30 27 26 25 25 25 25 25 25 26 26 25 25 26 27 28 30
41 40 37 35 32 29 28 28 30 32 34 36 37 38 38 37 36 36 38 40 40 40 39 38 38 37 37 36 36 35 34 32 30 30 31 33 35 36 36 37 39 40 39 39 38 39 39 37 35 33 32 32 33 34 36 36 36 34 33 32 31 31 31 31 32 33 33 32 29 27 26 25 25 25 25 25 25 25 25 25 25 25 25 25 25 27
40 37 33 29 26 26 29 31 34 35 36 37 37 38 38 38 37 36 37 38 39 39 38 38 38 37 37 35 34 33 31 29 29 30 32 34 35 35 36 37 39 39 39 39 39 39 38 36 34 34 34 34 35 35 35 34 33 33 33 33 33 34 35 36 36 34 31 28 26 25 24 24 24 24 25 25 24 24 24 24 25 24 23 21 20 22
36 31 26 25 27 30 33 35 36 38 38 38 37 37 37 37 37 36 37 38 38 37 37 36 36 36 34 32 29 28 27 28 30 32 34 35 36 36 37 39 40 39 38 38 38 37 35 34 34 34 35 35 35 34 32 31 31 32 33 34 35 36 37 37 35 32 29 27 27 27 26 25 23 23 22 22 22 22 23 25 25 25 22 19 17 18
30 26 27 30 34 36 37 37 38 38 39 38 37 36 36 37 36 36 36 37 37 36 35 34 33 32 30 29 27 27 28 29 31 33 36 38 39 38 38 39 39 38 37 36 36 36 35 34 34 35 35 35 34 32 30 29 30 32 33 35 36 37 37 35 33 30 30 30 30 30 30 30 28 25 22 21 20 20 22 25 26 26 23 19 15 14
28 29 32 35 37 38 38 38 38 38 38 38 37 36 35 36 36 36 35 34 34 32 30 30 30 32 33 33 31 29 29 30 32 34 37 39 41 40 38 37 37 37 36 35 35 35 35 34 35 36 36 34 31 28 28 30 32 33 34 35 36 37 36 35 33 32 32 33 33 33 34 35 34 31 27 24 22 20 20 24 27 27 24 21 17 14
31 33 35 37 38 39 39 38 37 37 37 36 35 35 35 36 38 38 37 34 31 29 29 30 32 34 36 37 35 32 30 30 33 35 37 41 43 42 38 35 34 35 36 36 35 35 35 36 36 36 34 30 27 26 29 32 34 35 34 35 35 36 36 35 34 34 35 35 36 35 35 37 37 35 32 28 25 23 22 22 24 26 25 23 21 19
35 36 36 37 38 38 38 37 36 36 35 35 35 36 37 39 38 35 30 28 28 30 32 32 32 33 35 36 36 34 31 32 34 36 38 41 42 41 38 35 34 35 36 37 36 36 37 38 37 33 28 26 26 29 32 35 35 35 34 34 34 34 35 35 35 36 36 35 34 33 33 33 33 33 32 30 28 26 24 24 24 25 25 24 23 22
38 37 37 37 37 37 37 35 35 35 34 34 35 38 41 41 36 31 29 30 31 32 33 34 35 35 35 36 37 36 34 32 33 35 39 40 40 39 37 34 34 35 37 39 39 38 36 32 27 24 25 27 30 33 35 35 35 34 33 33 34 35 36 36 36 34 32 30 29 28 28 29 29 29 29 28 28 28 27 27 27 26 26 25 24 24
39 38 36 36 37 37 36 35 34 34 35 37 40 43 44 40 35 31 31 31 32 33 34 35 35 36 36 36 37 37 35 34 34 35 37 38 38 37 36 34 35 38 40 39 36 32 28 25 25 27 29 32 34 35 35 35 34 33 33 34 35 36 36 35 33 31 28 27 27 27 27 27 26 26 26 26 26 27 27 28 29 28 28 27 26 25
39 39 38 36 36 36 37 36 36 36 37 40 43 46 45 39 34 31 32 32 34 35 35 35 35 36 35 35 37 37 36 35 35 35 36 36 36 37 36 35 35 35 34 31 27 24 24 26 29 31 33 34 34 34 34 33 34 34 35 36 36 35 34 32 30 29 28 29 29 29 29 28 26 24 23 23 23 24 25 26 27 29 29 28 27 27
39 39 39 38 37 37 37 39 39 38 37 39 43 44 42 36 32 31 33 34 35 35 35 35 35 35 36 37 38 38 37 35 34 34 34 35 37 38 36 33 30 28 27 26 27 28 28 29 31 32 32 32 32 32 33 33 34 35 36 36 35 34 32 30 29 29 30 31 31 32 32 31 29 26 23 21 20 20 22 24 27 28 29 29 28 28
38 38 40 39 39 38 39 40 40 39 38 40 42 42 39 35 33 33 34 35 35 35 36 37 37 37 37 37 37 37 35 32 31 31 32 34 36 36 34 30 28 27 28 29 30 29 29 30 31 31 32 32 32 32 32 32 33 34 35 35 33 31 29 28 28 29 31 31 32 33 33 33 31 30 27 25 22 22 23 25 27 29 30 30 29 29
38 39 40 39 39 39 38 37 36 37 39 41 42 41 38 36 35 35 35 36 36 36 38 38 38 37 35 33 33 32 30 28 27 28 30 32 34 34 32 28 27 29 31 32 31 30 31 32 32 32 32 33 33 32 31 31 33 34 34 32 29 28 27 28 29 30 32 33 33 32 31 30 29 28 27 26 25 25 26 27 29 31 31 31 30 30
37 37 37 38 37 35 34 34 35 37 39 41 40 39 38 37 36 36 36 35 35 35 36 35 35 34 33 31 30 29 28 26 26 27 30 32 33 32 29 28 28 30 33 34 33 32 32 33 33 33 32 33 32 31 30 31 33 33 31 29 27 27 28 29 31 32 33 33 32 30 28 26 25 25 25 25 25 26 28 29 31 32 32 31 30 30
34 34 34 34 33 33 34 35 37 37 37 37 36 35 36 36 36 36 35 34 33 33 33 33 33 33 32 30 28 28 27 26 26 27 28 29 29 29 30 30 29 31 34 34 33 33 32 33 33 34 33 32 30 29 29 31 32 31 30 28 28 28 29 31 33 34 33 32 30 29 27 25 24 23 23 24 25 27 29 30 32 32 31 30 29 29
31 31 32 33 34 35 36 36 36 35 34 33 33 33 34 35 36 36 34 33 32 32 33 33 33 32 32 29 27 27 27 27 27 26 27 28 30 31 32 31 30 31 33 34 33 32 32 33 34 35 33 30 27 26 28 30 31 31 31 30 30 31 32 33 33 32 31 30 30 29 27 26 24 24 25 25 27 28 29 30 30 30 29 28 28 28
32 33 34 35 35 35 34 33 32 31 31 31 32 32 32 33 34 34 34 33 33 33 32 32 32 31 31 30 28 28 28 28 27 26 26 28 29 31 31 30 30 30 32 33 34 34 32 32 32 31 28 26 24 25 28 30 32 32 32 32 32 33 33 32 31 30 30 30 29 29 27 26 26 26 26 27 27 28 29 28 28 27 26 26 26 27
37 37 36 35 33 32 31 30 30 30 30 31 31 31 31 31 32 33 33 34 34 34 33 32 31 31 31 32 32 31 29 26 25 25 26 27 29 30 31 30 30 30 31 32 34 34 32 29 27 25 24 23 24 26 29 31 32 33 33 33 33 33 32 31 30 29 30 30 29 28 27 27 26 26 26 26 26 26 26 25 24 24 24 24 25 25
37 36 33 32 30 30 30 30 30 30 30 30 30 30 30 30 31 32 33 34 33 33 32 32 32 32 32 32 32 31 28 25 24 25 27 28 29 30 31 30 30 30 30 31 31 32 31 28 24 22 22 24 26 29 31 32 33 33 33 33 32 31 31 30 30 30 31 31 30 28 26 25 24 23 23 23 23 23 22 21 20 21 21 22 23 24
35 33 31 31 31 31 31 30 29 29 30 31 31 31 30 30 30 31 31 31 32 32 32 32 32 32 32 31 30 29 28 27 27 27 29 30 31 31 31 31 30 30 30 29 28 28 29 30 27 23 23 26 29 31 32 32 32 31 31 30 30 30 30 30 31 32 33 32 30 27 25 23 21 20 19 19 19 19 19 19 18 19 20 22 23 24
32 31 31 32 33 33 31 29 29 30 31 32 33 32 31 31 31 31 30 30 31 32 32 33 33 33 33 32 31 30 30 30 31 31 31 31 32 32 32 31 31 31 31 30 30 29 28 30 30 28 27 28 30 31 32 31 30 29 28 28 28 29 31 32 33 34 34 32 29 25 23 21 19 17 15 16 16 17 18 18 18 19 20 22 23 24
32 33 34 34 34 32 31 30 30 31 31 32 32 32 32 31 31 30 31 31 32 32 32 33 33 34 34 34 34 33 33 34 34 34 32 32 33 34 33 33 33 33 33 33 34 33 31 30 31 32 31 31 30 30 30 29 28 26 25 25 28 31 34 36 37 36 34 30 26 24 22 21 18 15 14 14 15 16 17 17 17 18 20 22 23 24
34 35 35 34 33 31 30 30 31 31 32 32 32 31 31 31 31 31 31 32 32 32 32 33 34 34 34 35 35 35 35 36 36 35 33 33 34 35 35 35 35 35 35 35 33 32 30 29 30 30 31 31 30 29 28 26 24 23 24 26 30 34 37 38 37 34 29 26 24 24 23 21 19 16 13 13 14 15 16 16 17 18 19 21 23 25
35 35 35 33 32 31 30 31 32 32 32 32 32 31 31 31 31 32 33 33 33 33 33 33 34 34 34 35 36 36 36 37 37 36 35 36 37 38 36 35 35 35 35 35 32 29 28 28 30 30 30 31 30 28 25 23 22 24 27 31 34 37 38 36 33 28 25 24 25 26 25 23 20 17 14 13 14 15 16 16 16 16 17 19 22 25
35 35 34 32 31 30 30 31 32 32 32 32 32 32 32 32 33 33 34 33 34 34 34 34 35 35 34 35 36 37 38 38 38 37 37 38 39 40 39 37 37 37 36 35 31 29 28 29 30 31 30 29 28 26 24 23 25 29 33 36 37 37 35 30 26 24 24 25 27 27 26 23 20 17 15 14 14 14 15 15 15 14 14 16 20 24
34 34 32 31 31 31 31 33 33 33 32 33 33 34 34 35 35 34 35 35 35 35 34 34 34 34 35 35 35 37 38 39 38 38 38 38 39 41 42 40 39 37 35 33 31 30 31 31 31 31 29 26 24 23 24 27 31 34 35 36 36 33 29 24 22 22 24 26 27 26 24 20 18 16 14 13 13 13 14 14 14 14 13 13 16 20
34 33 32 31 31 31 32 33 33 33 33 34 34 35 35 35 35 35 35 35 35 35 34 34 34 34 35 35 35 36 37 38 38 38 37 36 37 38 40 39 38 35 33 32 32 34 35 33 30 27 25 23 23 25 28 31 33 33 34 34 32 29 25 22 22 23 25 26 26 23 20 16 14 13 13 12 11 11 12 13 14 14 13 11 12 14
33 32 32 32 32 32 33 33 33 34 34 35 35 35 35 35 35 35 35 35 34 34 34 34 34 35 35 35 35 35 36 36 36 35 34 34 33 34 34 35 35 34 33 33 34 35 33 29 25 23 23 25 27 29 31 32 33 33 34 32 29 26 23 23 24 25 26 26 23 19 15 12 11 11 11 10 9 9 10 12 13 14 13 12 12 12
33 32 32 32 32 33 34 34 34 35 36 36 36 35 34 34 34 34 34 34 33 33 33 34 34 34 34 34 35 35 35 35 34 33 32 31 30 30 31 32 33 33 33 32 31 29 26 25 25 27 28 28 30 31 31 31 31 31 31 31 30 27 25 24 26 27 26 24 19 14 10 8 8 9 8 8 7 7 8 9 10 12 13 14 15 16
33 32 32 33 34 34 34 35 35 35 35 35 35 34 33 33 33 33 34 33 33 33 33 33 33 33 34 35 35 35 34 33 32 31 30 29 29 28 28 29 29 30 29 28 26 25 26 28 30 30 31 30 30 29 29 29 29 28 28 28 29 29 27 27 27 27 25 20 14 9 6 5 5 5 5 5 5 5 6 7 8 11 13 15 17 18
32 33 33 34 34 35 35 36 36 35 35 34 33 32 32 33 33 32 32 33 33 33 33 33 32 33 35 36 35 34 33 32 31 30 29 27 26 25 24 24 24 24 25 26 28 30 31 31 30 28 27 27 27 27 28 28 28 27 27 27 28 29 29 28 26 25 22 16 9 5 4 4 3 3 3 2 2 3 4 5 7 10 13 15 16 18
32 33 34 35 35 35 35 36 35 34 34 33 32 32 32 32 32 32 32 32 32 32 33 33 33 34 36 36 35 33 32 31 30 29 27 25 23 22 22 24 25 26 27 28 29 29 29 27 25 23 23 23 24 25 26 27 27 27 26 25 26 27 28 28 26 22 17 10 6 5 7 7 7 6 4 3 1 1 3 4 6 9 11 13 15 17
33 34 34 35 35 35 35 34 34 33 33 32 32 32 33 33 33 33 32 32 32 33 33 34 34 34 34 33 32 31 31 31 30 28 25 23 23 24 26 27 28 27 26 24 23 23 22 22 21 20 20 20 20 21 23 25 26 26 25 24 24 24 25 26 23 19 13 7 6 8 10 10 10 9 7 6 4 3 3 4 6 7 9 10 12 15
33 34 34 34 35 35 35 34 34 33 33 32 33 33 33 33 33 33 33 32 33 34 33 34 34 32 30 29 29 30 31 31 30 28 26 25 26 28 29 30 29 27 24 21 19 18 18 18 18 17 16 15 16 18 20 23 24 25 24 23 22 22 22 20 17 14 9 6 8 11 13 13 13 13 12 11 9 8 8 8 9 9 8 8 9 11
33 34 34 35 35 34 34 34 33 33 33 32 33 33 34 33 33 33 33 33 34 35 34 33 31 30 28 28 29 31 31 31 30 28 28 28 29 29 30 31 30 28 23 19 16 15 14 13 13 12 12 13 15 17 19 21 22 23 23 21 21 20 17 14 11 8 6 8 11 14 15 16 16 17 17 16 15 15 15 15 15 15 14 12 10 9
34 35 35 34 34 34 34 34 33 33 32 33 33 34 34 34 34 34 34 34 34 34 33 32 29 28 28 29 30 31 30 30 29 29 29 30 30 30 31 32 31 27 21 16 13 11 10 8 7 7 9 12 15 17 19 20 21 21 20 19 18 16 13 9 7 7 8 10 13 16 18 19 20 20 20 20 20 21 21 21 21 20 20 19 17 16
35 34 34 34 34 34 34 34 33 33 33 33 34 34 34 34 35 35 34 35 34 33 32 30 28 28 29 30 30 30 28 28 28 30 30 30 30 31 32 33 31 26 18 12 8 7 5 3 3 5 7 10 13 16 18 19 19 18 17 16 14 11 8 8 8 9 11 14 17 19 21 22 23 24 24 24 25 26 26 26 26 26 25 25 24 24
35 35 34 35 34 34 34 34 34 34 34 34 35 35 35 35 35 35 35 34 33 32 30 28 28 29 30 30 30 29 28 28 29 30 30 29 30 31 33 34 31 25 16 9 5 3 2 2 2 3 5 9 11 13 15 16 16 15 13 11 9 7 8 9 10 12 15 18 20 23 24 25 25 26 27 28 29 29 29 30 30 30 29 29 28 29
35 35 34 34 33 34 35 34 34 34 35 35 35 35 36 36 36 36 35 33 32 31 29 28 28 29 29 30 30 29 29 29 30 30 29 28 29 30 32 33 31 25 16 10 7 5 3 2 2 3 7 9 10 11 13 14 14 12 9 7 6 7 10 11 13 16 19 21 24 26 27 28 28 29 29 31 31 32 32 32 32 32 32 31 31 31
35 35 35 34 34 34 35 34 34 35 35 35 35 36 36 37 37 36 35 33 32 30 29 28 29 28 28 28 28 29 29 29 29 29 28 27 28 29 30 31 29 24 17 13 12 10 8 4 4 6 9 9 9 9 11 14 14 10 6 5 7 10 11 13 15 18 21 24 26 28 30 31 32 32 33 33 34 34 33 33 33 33 32 32 31 31
Wind_Direction
298 298 299 300 299 299 299 299 298 299 299 300 300 300 299 297 296 294 294 295 297 297 297 297 298 299 300 300 298 296 295 295 296 297 298 298 297 297 296 296 296 297 298 298 299 299 299 298 297 297 296 296 296 297 297 297 296 296 296 296 295 293 291 289 286 284 282 280 277 275 275 275 275 274 273 272 271 270 269 268 267 266 265 264 263 263
298 299 299 300 300 300 299 300 300 299 300 300 299 298 297 295 294 294 295 296 297 296 296 296 297 298 298 296 295 293 293 295 296 297 297 297 297 297 296 296 296 297 298 299 299 299 298 297 297 296 296 296 296 296 296 297 297 297 298 297 296 295 293 290 288 286 284 281 278 276 276 277 277 275 273 272 271 270 270 269 267 265 264 263 263 262
299 300 300 302 302 302 301 301 301 300 299 298 297 296 294 294 293 294 295 296 295 294 294 295 296 297 296 294 292 292 293 294 295 296 297 297 297 297 296 296 296 297 299 299 299 299 298 297 296 295 295 295 295 295 296 296 296 297 299 299 298 296 294 292 290 287 285 282 280 280 280 279 278 277 275 274 274 273 272 271 268 266 264 263 262 261
297 299 300 302 303 302 300 299 299 298 296 295 294 294 294 293 293 293 293 293 293 293 294 295 296 296 295 293 292 292 293 294 295 296 297 297 296 295 295 295 296 298 299 299 299 298 297 296 295 294 294 294 294 294 294 294 295 297 298 299 299 298 296 295 292 288 284 283 282 282 281 279 278 277 277 276 276 275 274 272 269 266 263 262 261 260
294 295 298 300 301 300 299 297 296 295 295 294 294 294 294 293 292 292 292 292 293 294 295 296 297 297 295 293 292 292 293 294 295 296 296 296 295 294 294 295 297 298 299 299 298 297 296 295 294 293 293 292 292 292 291 292 293 296 298 300 300 300 299 297 294 289 285 283 281 279 277 276 275 276 276 275 274 273 271 270 267 265 262 260 259 258
290 291 295 297 299 299 298 297 295 294 294 295 295 294 293 292 291 291 292 293 294 296 297 299 299 298 297 294 293 292 292 293 294 295 295 294 293 293 294 296 298 299 299 299 298 297 296 295 294 293 292 291 290 289 289 291 294 297 300 302 303 303 302 300 297 293 289 286 282 278 274 272 272 272 272 272 272 271 269 268 266 264 262 259 258 257
289 292 296 298 299 298 296 295 294 294 294 294 294 294 293 293 293 294 295 296 297 299 300 301 301 299 297 295 293 292 292 293 294 294 293 292 291 292 294 297 299 300 300 299 298 297 297 296 295 294 292 290 289 288 290 294 298 301 303 304 304 303 302 301 299 297 296 295 291 285 278 274 272 271 270 271 272 272 272 271 269 266 263 260 258 256
293 297 300 300 300 298 295 293 293 293 293 294 295 297 298 300 300 300 300 300 301 302 302 302 300 298 296 294 292 292 293 293 293 292 291 290 291 293 296 299 301 301 301 300 299 299 299 298 297 295 293 290 290 291 295 299 302 302 302 302 301 300 299 299 298 299 300 302 300 295 288 282 277 275 274 275 277 277 277 276 273 269 265 261 259 257
298 301 302 300 298 296 294 292 292 294 296 299 302 305 307 307 306 305 304 302 302 302 301 300 299 296 295 293 292 292 293 292 291 290 290 291 293 295 298 301 303 302 301 300 300 300 301 301 300 297 294 294 295 298 301 302 302 301 301 300 299 298 297 296 296 298 301 302 301 298 293 287 283 281 281 282 282 281 279 277 274 270 266 263 260 259
302 301 299 298 295 292 290 291 294 300 306 309 311 311 310 308 307 305 303 302 301 301 300 298 296 295 294 294 293 293 292 290 288 287 289 291 294 297 299 302 302 302 301 300 299 299 300 301 300 298 296 297 299 300 299 299 300 302 304 304 302 300 298 296 295 296 298 299 299 296 292 287 284 283 283 283 281 279 278 275 273 271 268 265 263 260
302 299 296 293 291 290 291 296 304 311 315 315 313 311 308 306 304 303 302 301 301 300 299 297 295 294 294 294 294 292 290 288 287 289 292 294 297 299 300 302 302 302 301 299 298 298 299 300 298 296 295 296 296 296 297 300 303 307 309 308 307 305 303 299 296 295 295 296 297 295 291 286 283 281 279 278 277 276 275 272 269 267 267 267 264 261
299 295 292 289 290 295 302 309 314 315 315 314 311 308 305 303 301 300 300 299 299 298 298 297 295 294 293 293 292 291 289 289 292 295 297 298 300 301 302 303 304 304 301 300 298 298 299 299 297 295 293 294 294 296 298 302 307 311 312 311 310 308 305 302 299 298 297 299 300 297 292 286 281 278 275 274 275 275 273 267 262 262 264 266 265 262
295 292 290 293 300 309 314 315 315 313 312 311 309 306 304 302 301 299 298 296 295 295 295 296 295 295 294 292 292 292 294 297 299 300 300 300 301 302 303 304 304 303 301 299 298 298 298 297 296 294 293 294 294 296 299 304 309 312 312 311 309 306 303 301 301 301 304 307 309 307 301 293 285 279 274 272 272 271 267 260 258 262 270 274 271 264
293 294 299 308 313 314 314 314 313 311 310 308 306 303 301 301 300 298 296 294 293 293 293 294 294 296 298 299 300 302 304 304 303 302 301 300 300 302 303 303 303 301 299 297 296 295 295 294 293 293 293 294 294 296 299 304 308 310 309 307 305 302 300 300 301 305 309 312 315 314 311 304 298 291 285 279 273 268 261 255 257 264 274 279 278 270
296 303 311 312 311 311 311 311 310 309 307 305 303 301 299 299 297 296 293 292 292 293 295 297 300 303 305 306 307 308 307 305 303 302 301 300 300 301 303 302 301 299 296 294 293 293 293 292 292 292 293 293 294 296 299 302 304 305 305 303 302 301 301 303 306 310 312 313 313 312 309 305 301 298 295 293 287 275 261 253 255 261 266 268 269 267
303 309 310 308 307 306 307 307 307 305 304 303 301 299 298 297 296 294 290 289 292 296 302 307 309 309 307 304 304 304 304 303 303 302 301 300 300 301 302 300 298 296 294 292 291 291 291 292 292 291 291 291 293 297 300 302 304 304 303 302 302 303 306 309 312 312 310 309 307 306 304 302 299 296 293 293 294 289 275 260 256 257 260 260 259 257
310 310 308 306 304 304 305 305 304 303 302 301 299 298 297 295 293 291 289 292 298 305 309 310 309 307 305 304 303 303 304 304 303 302 301 300 300 300 300 298 295 293 293 291 290 290 291 291 290 290 290 292 296 299 301 303 304 304 303 302 302 303 306 308 308 307 305 303 302 301 301 300 298 295 292 290 290 289 283 272 263 259 259 257 255 254
311 309 307 305 304 303 303 303 302 301 300 299 299 298 297 294 292 291 296 303 308 309 308 307 305 304 303 302 302 302 304 304 303 302 301 299 299 299 299 297 294 292 291 290 290 290 290 289 289 290 292 296 298 301 302 304 304 304 303 302 302 302 303 302 302 302 301 301 301 301 300 299 298 296 292 289 286 284 282 278 272 267 263 260 257 255
308 306 304 303 303 302 302 301 300 300 299 299 300 300 298 295 294 298 304 308 309 307 306 305 303 301 300 298 299 300 303 304 303 302 300 298 297 297 298 297 295 292 290 290 290 290 289 290 292 296 298 299 300 301 303 304 304 303 302 302 302 302 302 301 301 302 303 304 304 304 303 301 300 298 294 290 286 283 281 280 277 274 270 265 262 259
303 302 301 301 301 301 299 298 297 297 297 299 301 300 298 297 298 303 307 308 307 305 304 303 301 299 298 297 297 299 302 303 302 300 298 296 295 296 298 298 296 293 291 290 290 291 293 297 300 301 300 301 302 303 304 304 302 302 302 303 303 303 303 303 304 305 307 308 307 306 304 302 300 298 296 293 290 287 285 282 280 276 273 270 266 262
300 300 299 298 298 297 296 295 294 294 296 299 301 300 298 298 301 305 307 307 306 305 303 301 299 298 298 297 297 298 301 302 300 297 295 294 294 295 298 298 295 292 290 292 295 300 304 304 303 302 301 302 303 303 303 302 302 303 304 304 304 304 303 304 305 306 307 307 306 305 302 300 298 296 294 292 289 286 284 281 279 277 274 271 267 263
298 297 297 296 295 293 292 291 291 293 296 300 301 300 297 300 304 307 308 308 307 305 303 300 298 297 297 296 297 299 301 302 299 296 294 292 292 295 297 297 294 293 295 300 304 307 306 304 302 302 301 301 301 301 300 300 301 303 306 306 305 304 303 304 304 305 305 305 304 303 301 299 296 295 293 290 286 280 277 276 276 275 273 271 266 261
295 294 295 294 292 290 289 289 291 295 300 303 303 301 300 304 307 309 309 308 306 304 302 300 299 298 297 297 298 300 302 302 300 297 294 290 291 293 294 294 296 300 304 306 307 306 305 302 301 300 300 300 299 298 298 299 301 304 306 306 305 303 303 303 303 303 303 303 302 301 300 298 296 294 292 289 284 280 277 275 274 273 272 269 265 260
294 293 293 292 291 290 291 293 297 303 306 305 304 303 303 306 308 308 307 306 304 303 302 301 300 299 298 297 298 299 299 299 298 296 292 288 287 289 292 297 304 308 306 305 305 305 303 301 299 299 298 299 298 297 296 299 303 306 307 307 305 303 302 301 301 301 301 301 301 300 299 297 295 293 290 286 283 280 278 275 273 271 270 267 264 259
294 293 292 291 292 294 297 301 304 306 305 304 302 302 304 306 307 306 305 304 303 303 302 302 300 299 298 299 298 297 297 297 297 294 290 287 287 291 297 305 309 309 305 303 303 303 302 300 299 298 297 296 296 295 297 301 306 308 309 306 303 301 300 300 300 301 302 303 304 304 303 301 297 294 290 286 283 280 277 274 272 270 268 266 263 259
297 295 294 295 297 300 302 303 303 303 302 300 300 302 304 306 306 305 304 303 303 303 303 301 299 298 298 298 297 297 298 300 301 299 295 295 297 301 304 307 308 306 303 303 303 302 301 300 299 298 296 294 294 296 300 304 308 309 308 304 301 299 299 300 301 303 304 305 306 306 305 302 299 295 292 288 283 279 275 272 270 268 267 265 262 258
304 303 303 303 304 304 304 303 302 301 300 300 301 303 304 305 305 304 302 302 303 303 302 300 298 298 299 298 297 298 301 303 304 303 303 303 304 303 303 305 305 304 303 302 302 301 300 299 298 297 295 294 295 299 303 307 308 308 306 303 301 300 301 302 303 304 304 304 304 304 303 301 299 296 292 288 282 277 272 270 268 266 265 263 260 257
312 311 309 308 307 306 305 304 303 302 302 302 303 304 304 304 302 301 300 301 302 302 299 297 296 297 299 299 299 300 302 302 303 304 305 305 302 299 300 303 304 303 303 302 302 301 299 297 296 296 295 296 299 302 305 307 307 306 304 303 302 302 303 304 304 303 303 303 303 303 302 300 298 295 291 285 279 274 270 268 266 264 262 260 257 254
313 312 310 309 309 309 309 309 307 305 304 304 305 305 304 302 300 298 299 300 300 299 297 296 296 297 298 300 301 301 301 301 303 305 306 304 300 298 300 302 303 303 303 303 302 302 300 297 296 296 297 298 301 304 305 305 305 304 304 304 304 305 306 305 305 304 304 305 305 304 301 299 297 293 289 282 277 272 269 266 264 261 259 255 253 250
315 314 314 313 314 314 314 313 310 308 307 306 306 305 304 302 299 298 298 299 298 297 296 297 297 298 300 302 303 303 302 303 305 307 307 303 299 298 300 301 301 301 303 303 303 302 301 299 298 297 298 300 303 304 305 305 305 304 305 305 306 306 307 306 306 306 307 307 307 306 303 301 299 295 289 281 275 271 267 264 261 259 256 253 250 248
318 318 317 317 317 317 315 313 310 308 308 308 308 307 305 303 301 300 299 298 297 296 295 297 298 298 300 301 302 302 302 303 305 306 305 301 297 296 299 300 299 300 301 300 300 301 302 302 301 299 301 303 305 306 305 305 305 305 305 305 306 306 307 307 307 308 309 310 310 310 310 310 308 302 292 282 274 268 263 260 258 256 254 251 249 247
319 318 316 317 317 316 313 311 310 308 308 309 309 308 307 305 303 302 300 299 298 297 296 297 297 298 298 297 296 296 297 299 302 304 304 299 296 296 298 298 298 298 299 297 295 295 296 298 300 302 304 305 305 305 305 305 304 304 304 305 305 306 307 308 309 310 312 313 315 317 319 321 319 311 296 282 271 264 259 255 252 251 250 249 247 246
318 317 318 318 316 314 312 311 310 309 309 309 309 308 307 306 305 303 302 301 300 299 297 297 296 296 296 295 293 292 294 296 300 303 303 299 296 295 297 297 297 297 298 297 295 292 290 292 298 303 305 305 304 303 303 304 304 304 304 305 306 307 309 310 311 312 315 317 321 325 329 330 327 317 300 283 270 263 258 254 251 248 247 246 245 244
317 318 318 316 314 313 311 311 311 311 311 310 310 309 308 307 306 305 304 303 301 300 298 297 296 295 295 294 293 293 294 296 301 304 304 299 296 295 296 296 296 296 297 296 296 294 291 293 298 303 304 304 303 302 302 303 304 305 306 307 308 309 310 312 313 315 318 323 328 333 336 335 330 319 303 285 271 264 260 258 256 251 246 244 242 240
317 316 316 315 313 312 312 312 313 312 312 312 311 310 309 308 308 307 306 304 303 302 300 298 297 296 295 294 293 293 294 298 303 306 305 301 298 296 295 295 296 296 296 295 295 295 296 297 299 300 301 301 301 301 302 304 306 307 308 309 309 310 311 314 316 319 325 330 334 336 337 334 328 319 304 287 273 265 263 264 264 260 252 244 239 236
315 315 314 314 313 312 312 313 314 314 313 313 312 311 311 310 309 309 308 307 306 305 303 302 301 299 297 295 294 293 295 301 306 308 307 305 301 298 294 294 295 295 294 294 295 296 298 299 299 298 298 298 299 302 306 308 309 310 310 310 311 312 314 318 322 327 331 334 336 335 333 329 323 314 301 286 273 264 262 267 272 274 267 251 238 233
314 314 314 313 313 313 313 314 314 314 314 313 313 313 312 312 311 310 310 310 309 308 307 306 305 303 302 300 298 298 300 304 308 310 311 309 305 300 295 294 295 295 294 294 295 297 297 296 296 296 296 297 301 306 310 312 312 312 312 313 314 316 319 325 332 336 337 336 334 331 327 323 316 306 296 284 270 261 260 266 274 279 276 259 241 232
314 313 313 313 313 314 314 314 314 314 314 314 314 314 314 313 313 313 312 313 313 312 310 309 308 307 307 306 305 305 306 308 310 312 314 312 308 303 298 297 297 298 297 297 297 297 295 293 293 295 299 302 306 309 311 313 313 314 314 316 318 321 326 333 339 341 339 336 332 328 323 318 309 299 290 281 269 261 260 265 271 272 266 252 236 229
314 314 313 314 314 314 314 314 314 314 314 314 315 315 315 315 315 315 315 315 315 314 313 311 309 309 310 310 311 311 312 313 314 316 317 316 313 308 303 300 299 300 301 301 299 297 294 292 295 301 306 309 309 309 310 312 313 315 317 320 324 327 333 338 341 341 340 336 331 327 323 316 305 294 286 278 269 262 258 259 260 256 244 228 214 212
315 314 314 314 314 314 314 314 314 315 315 316 316 317 317 317 317 317 317 317 316 316 315 314 314 313 313 313 314 316 317 318 320 321 320 319 317 313 308 303 301 301 302 302 300 297 295 297 300 304 306 307 308 308 309 311 314 318 321 322 323 327 335 340 342 341 340 336 332 330 327 318 305 293 284 276 266 256 251 248 242 232 221 207 198 197
315 314 314 314 315 315 315 316 316 316 317 318 318 318 318 318 318 317 318 318 317 317 318 318 317 316 316 317 319 321 322 323 324 324 323 321 319 315 311 307 306 305 304 303 301 299 298 300 301 303 303 304 305 307 309 311 315 319 321 320 322 328 335 340 341 340 338 337 336 339 341 332 315 299 289 277 263 250 242 233 219 208 202 198 196 196
315 315 314 315 315 316 316 317 318 319 319 319 319 318 318 319 318 317 318 318 318 319 320 319 318 316 317 320 323 325 326 326 326 325 324 322 319 317 315 314 313 311 308 305 301 299 298 299 300 301 302 303 305 306 308 311 316 320 321 323 326 330 334 337 340 341 339 341 349 10 28 30 22 7 345 322 283 248 232 218 205 196 191 191 194 198
315 315 315 316 316 317 318 319 319 320 320 320 319 319 319 320 320 319 318 318 318 319 320 320 319 318 317 319 322 325 326 327 328 327 326 324 323 323 322 321 317 313 309 306 303 300 298 298 298 298 299 300 302 305 307 311 315 320 323 326 328 327 325 329 336 344 347 355 23 59 67 67 64 58 51 48 55 195 207 205 201 195 191 191 193 198
316 316 316 317 319 319 320 320 320 321 321 320 320 320 321 323 323 322 320 319 319 319 321 322 322 321 318 318 320 322 325 328 331 331 329 328 328 328 329 328 326 321 316 312 308 305 303 300 297 295 296 299 302 307 310 313 316 318 322 325 326 323 320 324 332 341 350 15 61 79 80 81 81 81 80 84 92 112 137 160 172 179 182 189 194 199
317 318 318 319 320 320 320 321 321 321 321 321 321 321 322 324 324 323 322 320 321 321 322 324 322 320 317 319 321 323 325 329 332 333 332 330 330 332 334 335 334 332 326 319 311 305 302 299 298 299 304 309 313 315 316 316 316 317 320 322 323 323 325 331 337 344 358 40 74 84 87 88 89 90 91 91 90 92 98 106 113 121 134 155 175 189
319 319 319 320 320 321 321 322 322 322 322 321 322 322 324 326 326 325 324 323 323 323 324 324 322 319 318 320 323 325 327 329 331 332 331 332 334 336 338 340 339 337 331 323 313 304 299 298 301 310 320 324 324 321 317 315 315 317 319 323 327 331 338 345 353 8 37 67 81 87 91 93 93 92 92 92 90 89 90 93 95 97 100 108 122 142
321 320 320 320 321 321 321 322 323 323 322 322 323 324 325 327 327 326 325 326 325 324 323 323 322 320 321 322 324 326 327 328 329 330 332 334 337 339 340 341 341 340 336 328 318 310 304 306 317 333 341 335 328 322 316 315 317 320 324 330 335 340 349 7 30 54 75 84 87 91 94 95 94 93 94 94 93 90 89 90 90 91 92 94 98 104
321 321 321 321 321 321 321 322 323 323 323 323 324 325 326 328 327 327 326 327 326 324 322 321 320 321 323 324 325 326 326 327 327 330 333 336 338 338 339 341 343 344 343 338 329 321 319 331 3 8 354 336 327 322 320 323 326 330 333 336 341 352 17 46 67 82 91 93 93 94 95 93 91 91 93 94 93 90 89 88 88 88 89 90 92 94
322 322 322 322 322 322 322 322 322 322 323 324 325 325 326 328 329 328 327 327 326 324 321 320 320 322 323 324 326 327 327 327 329 331 335 337 337 337 339 342 345 348 352 358 359 354 353 43 51 13 334 324 324 327 331 334 337 339 341 344 356 24 56 75 88 94 96 96 96 96 95 94 93 92 92 91 89 88 87 87 87 87 87 87 89 90
324 324 323 323 322 322 323 323 323 323 323 324 324 324 326 328 329 330 329 327 325 323 321 321 322 323 323 324 326 327 327 328 330 333 336 337 337 337 338 342 347 352 359 16 33 43 59 83 50 347 327 329 334 341 348 350 350 349 352 5 39 69 82 91 96 98 98 98 97 96 95 94 94 93 91 89 87 86 85 84 84 84 84 85 86 88
325 325 325 324 324 323 323 323 323 323 324 324 324 324 325 327 328 329 329 328 326 324 323 323 324 324 324 325 325 326 327 329 331 334 336 337 336 336 339 344 349 355 3 19 34 44 51 61 36 10 360 357 356 359 6 9 6 4 16 54 80 91 95 98 99 100 100 99 97 96 95 93 92 90 89 87 85 83 81 80 80 81 82 83 84 85
Height
1361 1358 1356 1355 1354 1351 1347 1347 1346 1344 1341 1339 1338 1336 1335 1333 1331 1329 1328 1326 1325 1323 1322 1321 1319 1318 1316 1315 1314 1313 1312 1311 1310 1309 1307 1306 1304 1302 1301 1299 1298 1296 1295 1293 1292 1291 1289 1288 1286 1285 1284 1282 1281 1280 1278 1277 1276 1275 1274 1272 1271 1270 1269 1268 1268 1267 1267 1266 1266 1266 1265 1264 1264 1264 1263 1263 1263 1263 1263 1263 1263 1263 1263 1263 1263 1263
1359 1357 1355 1354 1352 1349 1346 1344 1344 1343 1340 1337 1336 1334 1332 1329 1327 1325 1324 1322 1321 1320 1319 1318 1317 1316 1314 1313 1312 1311 1309 1308 1307 1306 1304 1302 1301 1299 1297 1296 1295 1293 1292 1291 1289 1288 1286 1285 1283 1282 1281 1280 1278 1277 1276 1275 1274 1272 1271 1270 1269 1268 1266 1265 1264 1264 1262 1262 1262 1262 1261 1261 1260 1260 1260 1260 1260 1259 1259 1259 1259 1258 1258 1259 1259 1260
1358 1355 1352 1351 1350 1348 1345 1342 1341 1341 1339 1336 1333 1331 1329 1326 1324 1322 1321 1319 1318 1317 1317 1316 1315 1313 1312 1310 1309 1308 1306 1305 1304 1302 1301 1299 1298 1296 1295 1293 1292 1291 1289 1288 1286 1285 1283 1282 1281 1279 1278 1277 1276 1274 1273 1272 1271 1270 1269 1267 1266 1265 1264 1262 1261 1260 1259 1259 1259 1258 1258 1257 1257 1257 1256 1256 1256 1256 1256 1256 1256 1255 1255 1255 1255 1256
1356 1353 1350 1349 1348 1346 1344 1341 1339 1337 1336 1333 1330 1327 1326 1323 1321 1319 1318 1317 1316 1315 1314 1313 1312 1311 1309 1307 1306 1304 1303 1302 1301 1299 1298 1296 1295 1293 1292 1291 1289 1288 1286 1284 1283 1281 1280 1279 1277 1276 1275 1274 1273 1272 1271 1269 1268 1267 1266 1265 1263 1261 1260 1259 1258 1257 1256 1256 1255 1255 1254 1254 1254 1253 1253 1253 1253 1253 1253 1253 1253 1253 1252 1252 1251 1251
1354 1351 1349 1347 1345 1343 1341 1339 1337 1334 1331 1329 1326 1324 1322 1321 1319 1317 1316 1315 1314 1312 1311 1310 1309 1307 1306 1304 1302 1301 1300 1299 1297 1296 1295 1293 1292 1291 1289 1288 1286 1285 1283 1281 1279 1278 1276 1275 1274 1273 1272 1271 1270 1269 1267 1266 1265 1264 1263 1261 1260 1259 1257 1256 1255 1254 1253 1252 1251 1251 1251 1251 1251 1250 1250 1250 1250 1250 1250 1249 1249 1249 1249 1249 1249 1248
1351 1349 1347 1345 1343 1341 1338 1336 1334 1331 1328 1326 1323 1322 1320 1318 1317 1315 1314 1313 1312 1310 1308 1307 1306 1304 1303 1301 1299 1298 1297 1296 1294 1293 1291 1290 1289 1287 1286 1285 1283 1281 1279 1277 1276 1274 1273 1272 1271 1270 1269 1267 1266 1265 1264 1263 1262 1261 1260 1259 1257 1256 1255 1253 1252 1251 1251 1250 1249 1248 1247 1247 1247 1247 1247 1247 1246 1246 1246 1245 1245 1245 1245 1245 1245 1245
1347 1346 1345 1343 1341 1338 1336 1333 1331 1329 1327 1324 1321 1319 1318 1316 1315 1314 1312 1311 1310 1308 1306 1304 1303 1301 1300 1298 1297 1295 1294 1292 1291 1290 1288 1287 1286 1284 1283 1281 1280 1278 1276 1274 1272 1271 1270 1268 1267 1266 1265 1264 1262 1261 1261 1259 1258 1257 1257 1256 1255 1253 1251 1250 1249 1248 1247 1246 1245 1245 1244 1244 1244 1244 1244 1243 1242 1242 1241 1241 1241 1241 1241 1241 1241 1241
1344 1343 1343 1341 1339 1335 1332 1331 1329 1327 1326 1323 1321 1318 1316 1315 1314 1312 1311 1309 1307 1306 1304 1301 1300 1298 1297 1295 1294 1293 1291 1289 1288 1286 1285 1283 1282 1281 1279 1278 1276 1275 1273 1271 1269 1268 1266 1265 1264 1263 1261 1260 1259 1258 1257 1256 1256 1255 1254 1253 1251 1250 1249 1248 1246 1246 1244 1243 1242 1241 1241 1240 1240 1240 1240 1239 1238 1238 1237 1237 1237 1237 1237 1237 1238 1238
1344 1341 1340 1339 1337 1334 1329 1327 1326 1326 1325 1322 1320 1318 1316 1313 1311 1310 1308 1306 1305 1304 1302 1300 1297 1295 1293 1292 1291 1290 1288 1286 1285 1283 1282 1280 1279 1277 1276 1275 1273 1271 1269 1268 1266 1265 1263 1262 1261 1259 1258 1257 1256 1256 1255 1254 1253 1252 1251 1249 1248 1246 1246 1245 1244 1243 1241 1240 1239 1238 1237 1236 1236 1236 1236 1235 1235 1235 1235 1234 1234 1234 1234 1234 1235 1235
1343 1341 1338 1336 1334 1332 1328 1325 1323 1323 1323 1321 1319 1317 1315 1312 1309 1307 1304 1303 1301 1301 1300 1298 1295 1292 1290 1289 1288 1287 1285 1283 1282 1281 1279 1278 1276 1275 1273 1272 1270 1268 1266 1265 1263 1262 1261 1259 1258 1256 1255 1255 1254 1254 1253 1252 1251 1249 1247 1245 1244 1243 1242 1241 1241 1240 1238 1237 1236 1235 1234 1233 1233 1232 1232 1232 1232 1232 1232 1232 1232 1232 1232 1232 1232 1232
1341 1339 1336 1333 1330 1329 1327 1325 1322 1321 1321 1319 1317 1315 1314 1312 1310 1306 1302 1299 1298 1297 1296 1295 1293 1290 1287 1286 1284 1283 1282 1280 1278 1277 1276 1275 1274 1272 1271 1269 1267 1265 1263 1262 1261 1259 1257 1256 1255 1254 1253 1253 1252 1251 1250 1249 1248 1246 1244 1242 1241 1240 1239 1239 1238 1237 1236 1235 1234 1232 1231 1230 1229 1229 1228 1228 1229 1229 1229 1229 1229 1229 1229 1230 1230 1230
1339 1336 1333 1330 1328 1327 1326 1324 1322 1320 1319 1317 1315 1313 1311 1310 1309 1306 1302 1298 1295 1294 1292 1291 1289 1288 1286 1284 1281 1280 1279 1277 1275 1274 1273 1272 1271 1269 1268 1266 1264 1262 1260 1258 1257 1255 1254 1253 1252 1251 1251 1250 1249 1248 1247 1246 1245 1243 1241 1240 1239 1238 1237 1236 1235 1235 1234 1232 1231 1229 1228 1227 1226 1226 1226 1226 1226 1226 1226 1226 1226 1226 1226 1226 1227 1227
1336 1334 1331 1329 1327 1326 1324 1322 1320 1319 1317 1316 1315 1312 1309 1307 1306 1305 1301 1297 1294 1292 1290 1287 1285 1284 1283 1282 1280 1278 1276 1275 1274 1272 1271 1269 1268 1266 1265 1263 1261 1259 1257 1255 1253 1252 1251 1250 1249 1248 1248 1247 1246 1245 1245 1244 1242 1241 1240 1238 1237 1236 1235 1234 1233 1232 1230 1229 1227 1226 1225 1224 1224 1224 1224 1224 1224 1224 1224 1224 1224 1223 1223 1223 1223 1224
1334 1331 1329 1327 1326 1325 1323 1322 1320 1318 1316 1315 1314 1311 1308 1306 1304 1302 1299 1295 1292 1290 1288 1285 1282 1281 1280 1279 1278 1277 1276 1274 1272 1271 1268 1266 1265 1264 1263 1261 1258 1256 1254 1253 1251 1249 1248 1247 1246 1245 1244 1244 1243 1242 1242 1241 1240 1239 1238 1237 1236 1234 1233 1232 1230 1229 1227 1226 1224 1223 1222 1222 1221 1221 1221 1221 1221 1221 1222 1222 1221 1221 1221 1221 1221 1221
1332 1330 1327 1326 1324 1323 1322 1321 1319 1317 1315 1314 1312 1309 1306 1304 1301 1299 1296 1292 1289 1287 1285 1283 1281 1279 1278 1277 1277 1277 1276 1274 1271 1268 1266 1263 1262 1262 1261 1259 1256 1253 1252 1250 1248 1246 1246 1245 1244 1242 1241 1241 1240 1240 1239 1239 1238 1237 1236 1235 1233 1231 1230 1229 1227 1226 1224 1223 1222 1221 1220 1219 1219 1218 1218 1219 1219 1219 1219 1219 1219 1218 1217 1217 1217 1217
1331 1328 1326 1324 1323 1321 1321 1320 1318 1316 1313 1311 1309 1307 1305 1302 1299 1297 1294 1290 1287 1285 1283 1281 1278 1276 1274 1274 1275 1276 1275 1272 1270 1267 1264 1260 1258 1258 1259 1257 1254 1251 1249 1247 1246 1244 1243 1242 1241 1240 1239 1238 1238 1237 1237 1236 1236 1235 1234 1232 1231 1229 1227 1226 1224 1223 1222 1221 1220 1219 1218 1217 1216 1215 1215 1215 1216 1216 1216 1216 1215 1214 1214 1213 1213 1213
1329 1328 1326 1324 1322 1320 1319 1318 1316 1314 1312 1309 1307 1305 1303 1300 1297 1294 1291 1289 1286 1284 1282 1281 1278 1275 1271 1269 1271 1273 1274 1271 1268 1265 1262 1257 1254 1254 1255 1255 1251 1248 1246 1244 1243 1241 1240 1239 1238 1237 1236 1236 1236 1236 1235 1234 1233 1232 1231 1229 1228 1226 1225 1224 1222 1221 1220 1219 1218 1216 1216 1215 1214 1213 1212 1211 1211 1212 1212 1212 1212 1212 1211 1211 1211 1211
1329 1327 1325 1323 1321 1318 1317 1316 1314 1312 1310 1307 1305 1303 1300 1298 1295 1293 1291 1288 1286 1283 1281 1280 1277 1275 1272 1268 1266 1268 1271 1270 1266 1263 1259 1255 1251 1250 1251 1251 1249 1246 1243 1241 1239 1238 1237 1236 1235 1235 1234 1234 1234 1233 1232 1231 1230 1229 1228 1226 1225 1224 1222 1221 1220 1219 1217 1216 1215 1214 1213 1212 1211 1210 1209 1209 1208 1208 1208 1208 1209 1209 1209 1208 1208 1208
1327 1326 1324 1322 1319 1317 1315 1314 1312 1310 1308 1306 1304 1301 1298 1295 1293 1291 1288 1286 1285 1283 1281 1278 1276 1274 1271 1268 1265 1266 1268 1268 1265 1261 1257 1252 1248 1246 1247 1247 1246 1242 1239 1237 1236 1235 1235 1234 1233 1233 1233 1232 1232 1231 1230 1229 1228 1226 1225 1224 1222 1221 1219 1218 1216 1216 1215 1213 1212 1212 1211 1210 1209 1208 1207 1206 1206 1206 1206 1206 1206 1206 1206 1206 1206 1206
1325 1323 1322 1321 1318 1315 1313 1311 1310 1309 1307 1305 1302 1300 1297 1294 1291 1288 1286 1285 1283 1281 1280 1277 1274 1272 1270 1267 1264 1264 1265 1265 1263 1259 1255 1250 1246 1243 1244 1244 1242 1239 1236 1234 1233 1234 1233 1232 1232 1231 1231 1230 1229 1228 1227 1226 1225 1223 1222 1221 1219 1218 1216 1215 1214 1213 1212 1211 1210 1210 1209 1208 1207 1206 1205 1204 1204 1203 1203 1203 1203 1203 1203 1203 1204 1204
1323 1321 1320 1319 1317 1314 1311 1308 1307 1306 1305 1303 1301 1298 1295 1291 1289 1286 1285 1283 1281 1279 1277 1275 1272 1270 1268 1266 1263 1261 1262 1263 1261 1257 1252 1247 1243 1241 1241 1241 1239 1236 1234 1233 1232 1232 1231 1231 1230 1229 1228 1227 1226 1226 1225 1223 1222 1221 1219 1218 1216 1215 1214 1212 1211 1210 1210 1209 1208 1207 1206 1205 1203 1203 1202 1202 1202 1202 1201 1201 1201 1201 1201 1201 1201 1201
1322 1318 1316 1316 1315 1312 1309 1306 1304 1303 1303 1301 1300 1296 1293 1290 1287 1284 1282 1281 1279 1277 1274 1272 1270 1268 1266 1264 1261 1260 1260 1260 1258 1255 1251 1246 1241 1238 1239 1239 1238 1236 1233 1232 1231 1231 1230 1229 1227 1226 1226 1225 1224 1223 1222 1220 1219 1218 1216 1215 1214 1212 1211 1210 1209 1208 1207 1206 1206 1204 1202 1201 1200 1199 1198 1198 1198 1198 1198 1198 1198 1198 1198 1198 1198 1199
1320 1317 1314 1313 1311 1309 1306 1304 1302 1301 1300 1299 1298 1295 1292 1289 1286 1283 1281 1279 1277 1275 1272 1269 1267 1265 1264 1262 1260 1258 1258 1257 1256 1254 1251 1246 1240 1237 1237 1237 1236 1233 1231 1230 1229 1229 1228 1226 1225 1224 1223 1222 1221 1220 1219 1218 1216 1215 1214 1212 1211 1210 1209 1208 1207 1206 1205 1204 1202 1201 1200 1199 1198 1197 1196 1196 1195 1195 1195 1195 1195 1195 1195 1195 1196 1196
1317 1314 1312 1310 1308 1306 1304 1303 1301 1300 1298 1297 1296 1294 1291 1288 1285 1283 1281 1278 1276 1273 1270 1267 1265 1262 1261 1259 1258 1256 1256 1256 1255 1253 1250 1244 1239 1236 1236 1236 1234 1231 1229 1228 1228 1227 1226 1224 1222 1221 1221 1219 1218 1217 1216 1215 1214 1213 1211 1210 1209 1207 1206 1206 1205 1204 1202 1201 1200 1199 1197 1196 1196 1195 1194 1194 1193 1193 1193 1193 1192 1192 1192 1192 1193 1193
1314 1312 1310 1308 1306 1305 1304 1302 1300 1299 1297 1296 1294 1291 1288 1286 1283 1281 1279 1277 1275 1272 1269 1266 1263 1260 1258 1257 1256 1254 1253 1253 1253 1251 1248 1243 1238 1235 1235 1234 1233 1230 1227 1226 1226 1225 1223 1221 1219 1218 1217 1216 1215 1214 1213 1212 1211 1210 1209 1207 1206 1206 1205 1203 1202 1201 1200 1198 1197 1196 1194 1194 1193 1192 1192 1191 1191 1191 1190 1190 1190 1189 1189 1190 1190 1191
1312 1310 1308 1307 1305 1303 1302 1300 1299 1297 1296 1294 1292 1289 1286 1284 1281 1279 1276 1275 1273 1271 1268 1265 1261 1259 1257 1255 1254 1252 1251 1251 1250 1249 1246 1242 1238 1234 1233 1233 1232 1230 1226 1223 1223 1222 1221 1218 1216 1215 1214 1213 1212 1211 1211 1210 1208 1207 1206 1205 1204 1203 1202 1201 1200 1198 1197 1195 1194 1193 1192 1191 1190 1190 1189 1189 1188 1188 1187 1187 1187 1187 1187 1187 1187 1188
1310 1308 1306 1305 1303 1301 1299 1298 1296 1295 1294 1292 1290 1288 1286 1283 1280 1277 1275 1273 1271 1270 1267 1263 1260 1256 1255 1253 1252 1250 1249 1249 1248 1247 1245 1242 1238 1234 1232 1232 1231 1229 1225 1221 1220 1220 1219 1216 1214 1212 1211 1210 1209 1208 1208 1207 1206 1205 1204 1203 1202 1201 1200 1198 1196 1195 1194 1193 1191 1190 1189 1188 1188 1187 1186 1186 1185 1185 1184 1184 1184 1184 1184 1184 1185 1185
1307 1306 1304 1302 1300 1298 1296 1295 1294 1292 1291 1289 1288 1286 1285 1282 1279 1276 1273 1271 1270 1268 1265 1262 1259 1256 1253 1251 1250 1248 1248 1247 1246 1245 1244 1241 1238 1234 1231 1231 1230 1227 1224 1220 1217 1216 1216 1214 1211 1210 1209 1208 1207 1206 1205 1204 1203 1202 1201 1200 1199 1198 1196 1195 1194 1193 1191 1190 1189 1188 1186 1186 1185 1184 1184 1183 1182 1181 1181 1181 1181 1181 1181 1181 1182 1182
1304 1303 1301 1299 1297 1296 1294 1292 1291 1289 1288 1286 1285 1284 1282 1281 1278 1275 1272 1270 1268 1266 1263 1261 1258 1256 1252 1250 1247 1246 1246 1245 1245 1244 1242 1240 1236 1232 1230 1229 1228 1226 1224 1219 1215 1211 1211 1211 1210 1208 1207 1206 1205 1204 1203 1202 1201 1200 1198 1197 1196 1195 1193 1192 1191 1190 1189 1187 1186 1185 1184 1183 1182 1181 1180 1179 1179 1178 1178 1178 1178 1178 1178 1179 1179 1179
1301 1299 1297 1296 1294 1293 1291 1289 1288 1286 1285 1284 1283 1281 1280 1278 1276 1274 1271 1269 1267 1264 1261 1259 1257 1255 1252 1249 1246 1244 1243 1243 1243 1242 1241 1238 1234 1230 1229 1227 1226 1224 1223 1219 1214 1209 1206 1207 1208 1207 1206 1205 1203 1202 1201 1200 1198 1197 1195 1194 1192 1191 1191 1190 1189 1187 1186 1184 1183 1182 1181 1180 1179 1178 1177 1176 1176 1175 1175 1175 1176 1176 1176 1176 1176 1176
1298 1296 1295 1293 1291 1290 1289 1287 1286 1284 1283 1281 1280 1279 1277 1276 1274 1271 1269 1267 1266 1263 1261 1258 1256 1254 1252 1249 1246 1243 1240 1240 1241 1241 1240 1236 1232 1229 1227 1226 1224 1222 1222 1221 1216 1210 1204 1202 1203 1205 1204 1203 1201 1200 1198 1197 1196 1194 1193 1191 1190 1189 1188 1187 1186 1185 1183 1181 1180 1179 1178 1176 1176 1175 1174 1173 1172 1172 1172 1172 1173 1173 1173 1173 1173 1174
1296 1295 1293 1291 1289 1288 1286 1285 1283 1282 1280 1279 1277 1276 1274 1273 1271 1269 1268 1266 1264 1262 1260 1257 1254 1252 1251 1249 1246 1243 1240 1238 1238 1238 1237 1235 1230 1227 1226 1225 1222 1220 1220 1219 1217 1213 1207 1201 1199 1201 1201 1201 1199 1197 1196 1195 1194 1192 1191 1190 1188 1187 1186 1185 1184 1182 1180 1178 1177 1176 1175 1173 1172 1171 1171 1170 1170 1170 1170 1170 1170 1170 1171 1171 1171 1171
1295 1293 1291 1289 1287 1286 1285 1283 1282 1280 1278 1276 1275 1273 1272 1270 1269 1267 1266 1264 1262 1261 1258 1256 1253 1251 1248 1246 1244 1242 1239 1237 1236 1236 1235 1233 1229 1226 1224 1223 1221 1219 1217 1216 1215 1213 1209 1204 1200 1198 1198 1198 1197 1195 1194 1193 1192 1191 1190 1188 1187 1185 1184 1182 1181 1179 1177 1176 1174 1172 1171 1170 1169 1169 1168 1168 1167 1167 1167 1167 1167 1167 1168 1168 1168 1168
1293 1291 1289 1287 1286 1284 1283 1281 1280 1278 1276 1275 1273 1271 1270 1268 1266 1265 1263 1262 1260 1258 1256 1254 1252 1249 1246 1244 1241 1239 1237 1236 1235 1234 1233 1231 1228 1225 1222 1221 1219 1217 1215 1213 1211 1210 1207 1204 1201 1199 1196 1194 1193 1193 1192 1191 1190 1189 1188 1187 1186 1183 1181 1180 1178 1177 1175 1173 1171 1170 1168 1167 1167 1166 1166 1166 1165 1165 1164 1164 1164 1165 1165 1165 1165 1166
1291 1289 1287 1286 1284 1282 1281 1279 1278 1276 1274 1272 1271 1269 1267 1266 1264 1262 1261 1259 1257 1256 1254 1252 1250 1248 1246 1243 1240 1237 1234 1233 1232 1231 1231 1229 1226 1223 1221 1219 1217 1216 1213 1211 1209 1208 1205 1203 1201 1199 1196 1193 1191 1191 1191 1190 1189 1188 1186 1185 1184 1182 1180 1178 1176 1175 1173 1171 1169 1168 1166 1166 1165 1165 1164 1164 1163 1162 1162 1162 1162 1162 1162 1162 1162 1163
1290 1288 1286 1284 1283 1281 1279 1277 1276 1274 1272 1270 1269 1267 1265 1263 1262 1260 1258 1256 1255 1253 1251 1250 1248 1246 1244 1242 1239 1236 1233 1231 1230 1229 1228 1226 1225 1222 1219 1217 1216 1214 1212 1210 1208 1206 1204 1201 1199 1198 1196 1193 1190 1189 1188 1188 1187 1186 1185 1183 1181 1180 1178 1176 1175 1173 1171 1169 1167 1166 1166 1165 1164 1163 1163 1162 1161 1161 1160 1160 1160 1159 1159 1159 1159 1160
1289 1286 1285 1283 1282 1280 1278 1276 1274 1272 1270 1268 1266 1265 1263 1261 1259 1257 1256 1254 1252 1250 1248 1246 1245 1243 1241 1239 1237 1235 1231 1229 1227 1226 1225 1224 1222 1221 1218 1215 1213 1213 1211 1209 1207 1205 1203 1200 1197 1196 1194 1193 1191 1189 1187 1186 1185 1184 1182 1181 1179 1177 1176 1175 1173 1172 1170 1168 1167 1166 1165 1165 1164 1162 1161 1161 1160 1159 1159 1158 1158 1157 1157 1157 1157 1157
1288 1286 1284 1282 1281 1279 1276 1274 1272 1270 1268 1266 1264 1262 1261 1259 1256 1255 1253 1251 1249 1247 1246 1244 1241 1240 1238 1236 1234 1232 1230 1228 1226 1224 1222 1221 1220 1218 1216 1213 1212 1211 1210 1208 1206 1204 1201 1199 1196 1195 1193 1191 1190 1189 1187 1185 1183 1182 1180 1179 1177 1176 1174 1173 1172 1171 1169 1168 1167 1166 1165 1164 1163 1162 1161 1160 1159 1158 1157 1157 1156 1156 1156 1155 1156 1156
1286 1285 1283 1281 1279 1277 1275 1273 1271 1268 1266 1265 1263 1261 1258 1256 1254 1252 1251 1249 1247 1245 1243 1241 1239 1237 1235 1233 1231 1230 1228 1226 1224 1222 1220 1219 1217 1216 1215 1213 1211 1209 1207 1206 1204 1202 1201 1199 1196 1195 1192 1191 1189 1187 1186 1185 1183 1181 1179 1176 1175 1174 1173 1172 1171 1169 1168 1167 1166 1166 1164 1163 1162 1161 1160 1159 1158 1157 1156 1156 1155 1154 1154 1154 1155 1156
1286 1283 1281 1280 1278 1276 1274 1271 1269 1267 1265 1263 1261 1259 1256 1255 1252 1250 1248 1246 1245 1243 1241 1239 1237 1235 1233 1231 1229 1227 1226 1224 1222 1220 1218 1217 1216 1215 1213 1211 1209 1207 1205 1204 1203 1202 1201 1198 1196 1194 1192 1191 1189 1187 1185 1184 1183 1181 1179 1176 1174 1172 1171 1170 1169 1168 1167 1167 1166 1165 1164 1162 1161 1160 1159 1158 1157 1156 1156 1155 1154 1153 1153 1153 1153 1154
1285 1282 1280 1278 1276 1274 1272 1270 1268 1266 1263 1261 1259 1257 1255 1253 1251 1249 1246 1244 1243 1241 1239 1237 1235 1233 1231 1229 1227 1225 1224 1222 1220 1218 1217 1216 1214 1213 1211 1210 1208 1206 1205 1203 1201 1200 1198 1196 1195 1193 1192 1190 1189 1187 1185 1184 1182 1181 1180 1177 1175 1172 1170 1169 1168 1168 1167 1166 1166 1165 1163 1162 1161 1160 1159 1158 1157 1156 1155 1154 1154 1153 1152 1152 1152 1153
1284 1281 1279 1277 1275 1272 1270 1268 1266 1264 1262 1260 1258 1256 1254 1252 1250 1247 1245 1243 1241 1239 1237 1235 1233 1231 1228 1226 1224 1223 1221 1220 1219 1217 1216 1214 1213 1211 1211 1210 1208 1206 1204 1201 1199 1197 1196 1195 1193 1192 1191 1190 1188 1186 1184 1183 1181 1180 1179 1177 1175 1172 1170 1168 1168 1167 1167 1166 1165 1164 1163 1162 1161 1160 1159 1158 1157 1156 1155 1154 1154 1153 1152 1152 1152 1152
1282 1280 1278 1276 1273 1271 1269 1266 1264 1262 1260 1258 1256 1254 1252 1251 1249 1247 1245 1242 1240 1238 1236 1234 1232 1229 1226 1224 1222 1221 1220 1219 1217 1216 1215 1213 1212 1211 1210 1208 1206 1203 1201 1199 1196 1195 1193 1193 1192 1191 1190 1189 1188 1186 1184 1182 1181 1179 1178 1177 1176 1173 1171 1169 1168 1167 1166 1166 1165 1164 1163 1162 1161 1160 1159 1158 1157 1156 1156 1155 1154 1153 1153 1152 1152 1152
1281 1279 1276 1274 1272 1270 1267 1265 1263 1261 1259 1257 1255 1253 1251 1249 1247 1246 1244 1241 1239 1237 1235 1232 1230 1228 1226 1223 1221 1220 1218 1217 1216 1215 1213 1212 1211 1210 1208 1206 1203 1201 1199 1197 1195 1193 1191 1191 1190 1190 1189 1188 1187 1186 1184 1182 1181 1179 1177 1176 1176 1175 1173 1171 1169 1168 1167 1166 1166 1165 1164 1163 1162 1161 1160 1159 1158 1157 1156 1155 1154 1154 1153 1153 1152 1152
1280 1277 1275 1273 1271 1268 1266 1264 1262 1260 1258 1256 1254 1252 1250 1248 1246 1245 1242 1240 1238 1235 1233 1231 1229 1227 1225 1223 1221 1219 1217 1215 1214 1213 1212 1211 1210 1208 1206 1204 1201 1199 1196 1195 1193 1192 1191 1190 1189 1188 1188 1187 1187 1186 1184 1182 1181 1179 1177 1176 1175 1174 1173 1171 1170 1169 1168 1167 1166 1165 1164 1163 1162 1161 1161 1160 1159 1158 1157 1156 1155 1154 1154 1153 1153 1153
1279 1276 1274 1271 1269 1267 1265 1263 1261 1259 1257 1255 1253 1251 1248 1247 1245 1243 1241 1239 1236 1234 1232 1230 1228 1227 1225 1223 1221 1219 1216 1214 1213 1212 1211 1210 1208 1206 1204 1202 1200 1197 1195 1193 1191 1191 1190 1189 1188 1188 1187 1187 1186 1185 1184 1183 1181 1179 1177 1176 1175 1173 1172 1172 1171 1170 1169 1168 1167 1166 1165 1164 1163 1162 1161 1161 1160 1159 1158 1157 1156 1156 1155 1155 1154 1154
1278 1275 1273 1271 1268 1266 1264 1261 1260 1258 1256 1253 1251 1249 1247 1246 1244 1242 1240 1238 1236 1233 1231 1229 1228 1226 1225 1223 1221 1218 1216 1214 1213 1211 1210 1208 1206 1204 1202 1200 1198 1196 1194 1191 1190 1189 1189 1189 1188 1188 1188 1187 1186 1185 1183 1182 1181 1179 1177 1176 1175 1174 1173 1172 1171 1171 1170 1169 1168 1167 1166 1165 1164 1163 1162 1161 1161 1160 1159 1159 1158 1157 1157 1156 1156 1155
1276 1274 1272 1269 1267 1265 1262 1261 1259 1256 1254 1252 1250 1248 1246 1244 1243 1241 1238 1236 1234 1232 1230 1228 1227 1226 1224 1222 1220 1218 1216 1215 1213 1211 1209 1207 1205 1203 1201 1199 1196 1194 1192 1191 1190 1189 1188 1188 1188 1189 1189 1188 1186 1184 1183 1181 1180 1179 1177 1176 1176 1175 1174 1173 1172 1172 1171 1170 1169 1168 1167 1166 1165 1164 1163 1162 1162 1161 1161 1160 1160 1159 1159 1158 1158 1157
1276 1273 1271 1268 1266 1264 1261 1259 1257 1256 1253 1251 1249 1246 1245 1243 1241 1240 1238 1235 1233 1231 1230 1228 1227 1225 1223 1221 1219 1217 1216 1214 1212 1210 1208 1206 1205 1203 1201 1198 1196 1193 1191 1190 1190 1189 1189 1189 1189 1189 1189 1188 1186 1185 1183 1181 1180 1179 1178 1177 1176 1176 1175 1174 1173 1173 1172 1171 1170 1169 1168 1167 1166 1166 1165 1164 1163 1163 1163 1162 1162 1161 1161 1161 1160 1160
1274 1272 1270 1268 1266 1263 1261 1259 1256 1254 1252 1250 1248 1246 1243 1241 1240 1238 1236 1234 1232 1231 1229 1228 1226 1225 1222 1220 1218 1217 1215 1213 1211 1210 1208 1206 1205 1203 1201 1198 1195 1193 1191 1190 1190 1189 1189 1189 1189 1189 1188 1187 1186 1185 1184 1182 1181 1180 1179 1178 1178 1177 1176 1175 1175 1174 1173 1172 1171 1170 1169 1168 1167 1167 1166 1165 1165 1165 1164 1164 1164 1164 1164 1164 1164 1163
1273 1271 1269 1267 1265 1262 1260 1258 1256 1253 1251 1249 1247 1245 1242 1240 1238 1236 1235 1233 1231 1230 1228 1227 1226 1224 1222 1220 1218 1216 1215 1213 1211 1210 1208 1206 1205 1203 1201 1199 1196 1194 1192 1191 1190 1190 1190 1190 1190 1189 1188 1187 1186 1186 1184 1183 1182 1181 1180 1179 1179 1178 1177 1177 1176 1176 1175 1174 1173 1172 1171 1170 1169 1168 1167 1167 1166 1166 1166 1167 1167 1167 1167 1167 1166 1166